Other Public Products
Issued by NWS Charleston, SC

Current Version | Previous Version | Graphics & Text | Print | Product List | Glossary On
Versions: 1 2 3 4 5 6 7 8 9 10 11 12 13 14 15 16 17 18 19 20 21 22 23 24 25 26 27 28 29 30 31 32 33 34 35 36 37 38 39 40 41 42 43 44 45 46 47 48 49 50
000
FPUS82 KCHS 211026
OPUCHS

TEST...KCHS/KSAV Gateway Observations...TEST
National Weather Service Charleston SC
600 AM EDT THU SEP 21 2017

NOTE: "fair" indicates few or no clouds below 12,000 feet with no
significant weather and/or obstructions to visibility.

SCZ050-WAZ558-NCZ071-TXZ119-213-PAZ071-DCZ001-FLZ074-172-MI076-
NYZ176-178-MAZ016-IL014-TNZ027-NJZ106-GAZ044-MD014-211100-

...Gateway Observations for Charleston International...

CITY           SKY/WX    TMP DP  RH WIND       PRES   REMARKS
Chas Airport   PTCLDY    72  72 100 CALM      30.01R FOG
Seattle        CLOUDY    51  48  89 SE6       29.86R
Charlotte      PTCLDY    68  66  93 N7        30.05R
Dallas DFW     MOCLDY    81  74  79 S13       29.88S
Dallas Love    CLOUDY    80  73  79 S14       29.90S
Philladelphia  MOCLDY    71  63  75 N7        30.01R
Wash National  CLEAR     68  62  81 N6        30.03R
Baltimore      CLEAR     61  61 100 W3        30.02R
Miami          PTCLDY    81  76  84 CALM      29.92R
Detroit        CLOUDY    69  66  90 SE5       30.06S FOG
Newark         CLOUDY    73  64  73 N12       29.97R
Laguardia      CLOUDY    73  65  75 N14       29.95R
J F K          CLOUDY    73  63  70 N16       29.95R
Boston Logan   CLOUDY    69  64  84 N26G35    29.92R
Ft. Lauderdale PTCLDY    81  78  91 CALM      29.92R
Chicago O`Hare CLOUDY    75  67  76 SW6       29.96R
Chicago Midway CLOUDY    75  68  78 S6        29.96R
Houston Bush   PTCLDY    78  76  93 S3        29.92F
Houston Hobby  PTCLDY    80  76  87 SE3       29.92S
Nashville      CLEAR     69  67  93 CALM      30.07R
Atlanta        PTCLDY    70  67  90 NW6       30.06R

$$

GAZ044-118-TXZ119-213-NCZ071-DCZ001-MDZ014-506-PAZ021-071-NJZ106-
NYZ176-178-MAZ106-OHZ011-021-055-MIZ076-KYZ091-ILZ014-INZ047-
MNZ060-ONZ431-211100-

...Gateway Observations for Savannah International...

CITY           SKY/WX    TMP DP  RH WIND       PRES   REMARKS
Savannah Arpt  PTCLDY    71  71 100 CALM      30.01R
Atlanta        PTCLDY    70  67  90 NW6       30.06R
Charlotte      PTCLDY    68  66  93 N7        30.05R
Dallas DFW     MOCLDY    81  74  79 S13       29.88S
Houston Bush   PTCLDY    78  76  93 S3        29.92F
Wash National  CLEAR     68  62  81 N6        30.03R
Wash Dulles    CLEAR     62  61  96 N3        30.04R
Baltimore      CLEAR     61  61 100 W3        30.02R
Philadelphia   MOCLDY    71  63  75 N7        30.01R
Newark         CLOUDY    73  64  73 N12       29.97R
Laguardia      CLOUDY    73  65  75 N14       29.95R
J F K          CLOUDY    73  63  70 N16       29.95R
Boston         CLOUDY    69  64  84 N26G35    29.92R
Pittsburg      CLEAR     64  62  93 CALM      30.10S
Akron          CLEAR     66  62  87 CALM      30.10S
Cleveland      PTCLDY    66  62  87 CALM      30.09S
Cincinnati     PTCLDY    68  68 100 CALM      30.07R
Columbus       MOCLDY    62  62 100 CALM      30.08S FOG
Detroit        CLOUDY    69  66  90 SE5       30.06S FOG
Chicago O`Hare CLOUDY    75  67  76 SW6       29.96R
Minneapolis    CLEAR     56  51  84 E3        29.99S
Indianapolis   CLOUDY    71  69  93 SE3       30.05R
Toronto Canada CLEAR     64  59  82 NE3       30.10S

$$




USA.gov is the U.S. government's official web portal to all federal, state and local government web resources and services.